Météo par heure à Almazne

Ce jour, 14 Mai, Vendredi

Heure Température Précipitation Vent Pression Humidité
00:00 +14°C° 0 mm 2 m/s 754 mmHg 63%
01:00 +12°C° 0 mm 3 m/s 754 mmHg 61%
02:00 +12°C° 0 mm 3 m/s 754 mmHg 60%
03:00 +12°C° 0 mm 3 m/s 754 mmHg 64%
04:00 +12°C° 0 mm 3 m/s 754 mmHg 68%
05:00 +12°C° 0 mm 3 m/s 754 mmHg 72%
06:00 +16°C° 0 mm 2 m/s 755 mmHg 64%
07:00 +18°C° 0 mm 2 m/s 755 mmHg 55%
08:00 +21°C° 0 mm 1 m/s 755 mmHg 47%
09:00 +23°C° 0 mm 1 m/s 755 mmHg 43%
10:00 +25°C° 0 mm 2 m/s 755 mmHg 40%
11:00 +27°C° 0 mm 2 m/s 755 mmHg 36%
12:00 +27°C° 0 mm 2 m/s 755 mmHg 37%
13:00 +27°C° 0 mm 3 m/s 755 mmHg 38%
14:00 +28°C° 0 mm 4 m/s 755 mmHg 40%
15:00 +27°C° 0 mm 3 m/s 755 mmHg 44%
16:00 +26°C° 0 mm 3 m/s 756 mmHg 49%
17:00 +24°C° 0 mm 2 m/s 756 mmHg 53%
18:00 +21°C° 0 mm 2 m/s 756 mmHg 61%
19:00 +19°C° 0 mm 2 m/s 756 mmHg 69%
20:00 +17°C° 0 mm 2 m/s 756 mmHg 76%
21:00 +16°C° 0 mm 2 m/s 756 mmHg 77%
22:00 +16°C° 0 mm 2 m/s 757 mmHg 78%
23:00 +15°C° 0 mm 2 m/s 757 mmHg 79%

Demain, 15 Mai, Samedi

Heure Température Précipitation Vent Pression Humidité
00:00 +15°C° 0 mm 2 m/s 757 mmHg 79%
01:00 +13°C° 0 mm 3 m/s 757 mmHg 79%
02:00 +13°C° 0 mm 3 m/s 757 mmHg 79%
03:00 +14°C° 0 mm 2 m/s 758 mmHg 79%
04:00 +14°C° 0 mm 2 m/s 758 mmHg 79%
05:00 +14°C° 0 mm 2 m/s 758 mmHg 78%
06:00 +16°C° 0 mm 1 m/s 758 mmHg 70%
07:00 +19°C° 0 mm 1 m/s 758 mmHg 63%
08:00 +20°C° 0 mm 0 m/s 758 mmHg 55%
09:00 +23°C° 0 mm 1 m/s 758 mmHg 52%
10:00 +24°C° 0 mm 1 m/s 758 mmHg 48%
11:00 +26°C° 0 mm 2 m/s 758 mmHg 45%
12:00 +26°C° 0 mm 2 m/s 758 mmHg 45%
13:00 +25°C° 0 mm 3 m/s 758 mmHg 45%
14:00 +25°C° 0 mm 4 m/s 757 mmHg 45%
15:00 +24°C° 0 mm 3 m/s 757 mmHg 50%
16:00 +24°C° 0 mm 3 m/s 757 mmHg 55%
17:00 +22°C° 0 mm 3 m/s 757 mmHg 60%
18:00 +20°C° 0 mm 2 m/s 757 mmHg 64%
19:00 +19°C° 0 mm 2 m/s 757 mmHg 68%
20:00 +18°C° 0 mm 1 m/s 757 mmHg 73%
21:00 +18°C° 0 mm 1 m/s 757 mmHg 75%
22:00 +16°C° 0 mm 1 m/s 757 mmHg 77%
23:00 +16°C° 0 mm 1 m/s 757 mmHg 79%

Après-demain, 16 Mai, Dimanche

Heure Température Précipitation Vent Pression Humidité
00:00 +15°C° 0 mm 1 m/s 756 mmHg 79%
01:00 +15°C° 0 mm 1 m/s 756 mmHg 78%
02:00 +15°C° 0 mm 1 m/s 756 mmHg 78%
03:00 +15°C° 0 mm 1 m/s 756 mmHg 77%
04:00 +15°C° 0 mm 2 m/s 756 mmHg 76%
05:00 +15°C° 0 mm 2 m/s 756 mmHg 75%
06:00 +17°C° 0 mm 3 m/s 755 mmHg 69%
07:00 +19°C° 0 mm 3 m/s 755 mmHg 64%
08:00 +20°C° 0 mm 4 m/s 755 mmHg 58%
09:00 +22°C° 0 mm 4 m/s 755 mmHg 55%
10:00 +23°C° 0 mm 4 m/s 755 mmHg 51%
11:00 +25°C° 0 mm 4 m/s 755 mmHg 47%
12:00 +25°C° 0 mm 4 m/s 754 mmHg 48%
13:00 +25°C° 0 mm 4 m/s 754 mmHg 49%
14:00 +25°C° 0 mm 4 m/s 753 mmHg 49%
15:00 +23°C° 0 mm 4 m/s 753 mmHg 55%
16:00 +22°C° 0 mm 3 m/s 752 mmHg 61%
17:00 +21°C° 0 mm 2 m/s 752 mmHg 66%
18:00 +20°C° 0.5 mm 2 m/s 752 mmHg 72%
19:00 +19°C° 0.5 mm 2 m/s 752 mmHg 78%
20:00 +18°C° 0.5 mm 2 m/s 751 mmHg 83%
21:00 +18°C° 1 mm 2 m/s 751 mmHg 86%
22:00 +18°C° 1 mm 2 m/s 751 mmHg 88%
23:00 +17°C° 1 mm 3 m/s 751 mmHg 91%

17 Mai, Lundi

Heure Température Précipitation Vent Pression Humidité
00:00 +17°C° 0.4 mm 3 m/s 751 mmHg 92%
01:00 +17°C° 0.4 mm 3 m/s 751 mmHg 93%
02:00 +16°C° 0.4 mm 3 m/s 751 mmHg 94%
03:00 +16°C° 0.5 mm 3 m/s 751 mmHg 95%
04:00 +17°C° 0.5 mm 3 m/s 751 mmHg 95%
05:00 +17°C° 0.5 mm 4 m/s 751 mmHg 96%
06:00 +18°C° 0.1 mm 4 m/s 751 mmHg 91%
07:00 +19°C° 0.1 mm 5 m/s 751 mmHg 87%
08:00 +20°C° 0.1 mm 5 m/s 752 mmHg 83%
09:00 +22°C° 0.1 mm 5 m/s 752 mmHg 75%
10:00 +23°C° 0.1 mm 5 m/s 752 mmHg 67%
11:00 +26°C° 0.1 mm 5 m/s 753 mmHg 59%
12:00 +26°C° 0 mm 5 m/s 753 mmHg 56%
13:00 +26°C° 0 mm 4 m/s 753 mmHg 53%
14:00 +27°C° 0 mm 4 m/s 753 mmHg 50%
15:00 +26°C° 0 mm 5 m/s 754 mmHg 54%
16:00 +25°C° 0 mm 5 m/s 754 mmHg 58%
17:00 +23°C° 0 mm 5 m/s 754 mmHg 62%
18:00 +21°C° 0 mm 5 m/s 754 mmHg 67%
19:00 +19°C° 0 mm 4 m/s 755 mmHg 72%
20:00 +17°C° 0 mm 4 m/s 755 mmHg 77%
21:00 +15°C° 0 mm 4 m/s 756 mmHg 78%
22:00 +16°C° 0 mm 3 m/s 756 mmHg 79%
23:00 +14°C° 0 mm 3 m/s 756 mmHg 80%

18 Mai, Mardi

Heure Température Précipitation Vent Pression Humidité
00:00 +14°C° 0 mm 3 m/s 756 mmHg 80%
01:00 +14°C° 0 mm 3 m/s 756 mmHg 81%
02:00 +13°C° 0 mm 3 m/s 756 mmHg 81%
03:00 +14°C° 0 mm 3 m/s 757 mmHg 81%
04:00 +14°C° 0 mm 3 m/s 757 mmHg 81%
05:00 +14°C° 0 mm 3 m/s 757 mmHg 81%
06:00 +17°C° 0 mm 3 m/s 757 mmHg 75%
07:00 +19°C° 0 mm 3 m/s 758 mmHg 69%
08:00 +21°C° 0 mm 2 m/s 758 mmHg 63%
09:00 +23°C° 0 mm 2 m/s 758 mmHg 57%
10:00 +25°C° 0 mm 2 m/s 758 mmHg 52%
11:00 +26°C° 0 mm 2 m/s 758 mmHg 46%
12:00 +26°C° 0 mm 2 m/s 758 mmHg 44%
13:00 +27°C° 0 mm 3 m/s 758 mmHg 42%
14:00 +27°C° 0 mm 3 m/s 757 mmHg 41%
15:00 +26°C° 0 mm 3 m/s 757 mmHg 44%
16:00 +26°C° 0 mm 3 m/s 757 mmHg 48%
17:00 +25°C° 0 mm 3 m/s 757 mmHg 52%
18:00 +22°C° 0 mm 3 m/s 757 mmHg 60%
19:00 +20°C° 0 mm 3 m/s 757 mmHg 69%
20:00 +18°C° 0 mm 4 m/s 757 mmHg 78%
21:00 +17°C° 0 mm 4 m/s 757 mmHg 80%
22:00 +15°C° 0 mm 4 m/s 756 mmHg 82%
23:00 +15°C° 0 mm 4 m/s 756 mmHg 84%

19 Mai, Mercredi

Heure Température Précipitation Vent Pression Humidité
00:00 +14°C° 0 mm 4 m/s 756 mmHg 86%
01:00 +14°C° 0 mm 4 m/s 756 mmHg 88%
02:00 +14°C° 0 mm 4 m/s 756 mmHg 89%
03:00 +14°C° 0 mm 4 m/s 755 mmHg 89%
04:00 +14°C° 0 mm 4 m/s 755 mmHg 89%
05:00 +14°C° 0 mm 4 m/s 755 mmHg 88%
06:00 +16°C° 0 mm 5 m/s 755 mmHg 78%
07:00 +20°C° 0 mm 5 m/s 755 mmHg 67%
08:00 +22°C° 0 mm 5 m/s 755 mmHg 56%
09:00 +23°C° 0 mm 5 m/s 754 mmHg 51%
10:00 +26°C° 0 mm 5 m/s 754 mmHg 45%
11:00 +27°C° 0 mm 5 m/s 754 mmHg 40%
12:00 +27°C° 0 mm 5 m/s 754 mmHg 39%
13:00 +27°C° 0 mm 5 m/s 754 mmHg 39%
14:00 +28°C° 0 mm 5 m/s 754 mmHg 39%
15:00 +26°C° 0 mm 6 m/s 754 mmHg 50%
16:00 +22°C° 0 mm 6 m/s 754 mmHg 60%
17:00 +20°C° 0 mm 7 m/s 755 mmHg 70%
18:00 +19°C° 0.1 mm 6 m/s 755 mmHg 75%
19:00 +16°C° 0.1 mm 6 m/s 755 mmHg 79%
20:00 +15°C° 0.1 mm 5 m/s 755 mmHg 84%
21:00 +14°C° 1.7 mm 5 m/s 756 mmHg 86%
22:00 +14°C° 1.7 mm 5 m/s 756 mmHg 88%
23:00 +13°C° 1.7 mm 5 m/s 756 mmHg 90%
Voir plus

Nous avons besoin de votre consentement

Meteoprog et ses fournisseurs de services peuvent stocker et accéder à des données personnelles telles que des cookies, des identifiants d'appareils ou d'autres technologies similaires sur votre appareil et traiter ces données pour personnaliser le contenu et les publicités, ainsi que pour fournir des fonctionnalités de médias sociaux et analyser le trafic.

  • Stocker et/ou accéder à des informations sur votre appareil

    Des cookies, des identifiants d'appareils ou d'autres informations peuvent être stockés ou accessibles sur votre appareil aux fins indiquées ci-dessus.

  • Annonces et contenus personnalisés, mesure des annonces et des contenus, connaissance de l'audience et développement de produits

    Les annonces et le contenu peuvent être personnalisés en fonction d'un profil. D'autres données peuvent être ajoutées pour mieux personnaliser les annonces et le contenu. Les performances des publicités et du contenu peuvent être mesurées. Il est possible d'obtenir des informations sur le public qui a vu les publicités et le contenu. Ces données peuvent être utilisées pour développer ou améliorer l'expérience de l'utilisateur, les systèmes et les logiciels.

En cliquant sur "J'accepte", vous autorisez l'utilisation de cookies, des identifiants d'appareils, des balises web ou d'autres technologies similaires. Vos paramètres peuvent être modifiés dans le navigateur de votre appareil.

Dans certains cas, des intérêts légitimes peuvent être invoqués plutôt qu'un consentement. Vous pouvez en savoir plus à ce sujet dans notre Politique de confidentialité et de cookies.